This is the latest recevied weather packets stored in our database for station/object S56VIL-11. If no packets are shown the sender has not sent any weather packets the latest 10 day(s).
| Time | Temp. | Humidity | Pressure | Rain* | Wind** | Luminosity | Snow |
|---|---|---|---|---|---|---|---|
| 1777555486 | 13.89° C | 60% | 1034.5 hPa | - | - | - | - |
| 1777554582 | 14.44° C | 61% | 1034.6 hPa | - | - | - | - |
| 1777553685 | 13.89° C | 60% | 1034.6 hPa | - | - | - | - |
| 1777552782 | 13.33° C | 60% | 1034.8 hPa | - | - | - | - |
| 1777551885 | 13.33° C | 61% | 1034.9 hPa | - | - | - | - |
| 1777550982 | 13.33° C | 61% | 1035.1 hPa | - | - | - | - |
| 1777550085 | 13.33° C | 61% | 1035.1 hPa | - | - | - | - |
| 1777549181 | 13.33° C | 62% | 1035.2 hPa | - | - | - | - |
| 1777548281 | 13.89° C | 63% | 1035.2 hPa | - | - | - | - |
| 1777547381 | 12.78° C | 63% | 1035.2 hPa | - | - | - | - |
| 1777546484 | 12.22° C | 64% | 1035.4 hPa | - | - | - | - |
| 1777545581 | 15.56° C | 65% | 1035.3 hPa | - | - | - | - |
| 1777544684 | 15° C | 66% | 1035.4 hPa | - | - | - | - |
| 1777543781 | 15.56° C | 66% | 1035.3 hPa | - | - | - | - |
| 1777542883 | 15° C | 66% | 1035.2 hPa | - | - | - | - |
| 1777541981 | 15° C | 67% | 1035.3 hPa | - | - | - | - |
| 1777541083 | 14.44° C | 66% | 1035.3 hPa | - | - | - | - |
| 1777540181 | 12.78° C | 67% | 1035.3 hPa | - | - | - | - |
| 1777539283 | 12.78° C | 67% | 1035.3 hPa | - | - | - | - |
| 1777538382 | 11.11° C | 68% | 1035.2 hPa | - | - | - | - |
| 1777537482 | 8.89° C | 69% | 1035.2 hPa | - | - | - | - |
| 1777536581 | 7.22° C | 70% | 1035.2 hPa | - | - | - | - |
| 1777535679 | 6.11° C | 69% | 1035.1 hPa | - | - | - | - |
| 1777534781 | 5.56° C | 70% | 1035.1 hPa | - | - | - | - |
| 1777533881 | 5° C | 70% | 1035.1 hPa | - | - | - | - |
* Rain since midnight (hover to see other rain measurements)
** Current wind speed in m/s (hover to see current wind gust speed)